La Paz, Mexico

11:07 AM MDT on September 26, 2017 (GMT -0600)
Gen Manuel Marquez De Leon

Weather History for MMLP - December, 2012

Change the Weather History Date:

Tuesday, December 18, 2012

  Actual Average Record
Temperature  
Mean Temperature 66 °F -  
Max Temperature 80 °F 75 °F 87 °F (2013)
Min Temperature 51 °F 52 °F 46 °F (1999)
Growing Degree Days 16 (Base 50)    
Moisture  
Dew Point 53 °F    
Average Humidity 65    
Maximum Humidity 93    
Minimum Humidity 30    
Precipitation  
Precipitation 0.00 in - - ()
Sea Level Pressure  
Sea Level Pressure 29.94 in    
Wind  
Wind Speed 4 mph ()    
Max Wind Speed 14 mph    
Max Gust Speed -    
Visibility 10.6 miles    
Events      
Averages and records for this station are not official NWS values.
T = Trace of Precipitation, MM = Missing Value Source: Averaged Metar Reports

Daily Weather History Graph

Daily Weather History Graph

Search for Another Location

Airport or City:

Trip Planner

Search our weather history database for the weather conditions in past years. The results will help you decide how hot, cold, wet, or windy it might be!

Date:

Astronomy

Dec. 18, 2012 Rise Set
Actual Time 6:58 AM MST 5:37 PM MST
Civil Twilight 6:34 AM MST 6:02 PM MST
Nautical Twilight 6:05 AM MST 6:31 PM MST
Astronomical Twilight 5:37 AM MST 6:58 PM MST
Moon 11:14 AM MST (12/18) 11:29 PM MST (12/18)
Length of Visible Light 11h 28m
Length of Day
10h 39m
Waxing Crescent, 35% of the Moon is Illuminated
Dec 18
Waxing Crescent
Dec 19
First Quarter
Dec 28
Full
Jan 4
Last Quarter
Jan 11
New

Hourly Weather History & Observations

Time (MST) Temp. Windchill Dew Point Humidity Pressure Visibility Wind Dir Wind Speed Gust Speed Precip Events Conditions
1:45 AM 62 °F - 54 °F 69% 29.90 in 2 mi East 2.2 mph - -  
4:50 AM 55 °F - 51 °F 81% 29.90 in 2 mi South 2.2 mph - -  
5:45 AM 46.4 °F 45.2 °F 44.6 °F 93% 29.91 in 10.0 mi SSE 3.5 mph - N/A   Clear
6:47 AM 46.4 °F 44.3 °F 44.6 °F 93% 29.93 in 10.0 mi South 4.6 mph - N/A   Clear
7:50 AM 56 °F - 52 °F 81% 29.94 in 12 mi South 2.2 mph - -  
7:54 AM 50.0 °F - 46.4 °F 87% 30.00 in 12.0 mi South 5.8 mph - N/A   Clear
8:40 AM 55.4 °F - 50.0 °F 82% 29.97 in 12.0 mi South 4.6 mph - N/A   Clear
9:48 AM 68.0 °F - 55.4 °F 64% 29.98 in 12.0 mi Calm Calm - N/A   Clear
10:45 AM 71.6 °F - 51.8 °F 50% 30.02 in 12.0 mi NW 5.8 mph - N/A   Clear
10:50 AM 74 °F - 56 °F 44% 29.96 in 19 mi NW 4.5 mph - -  
11:43 AM 73.4 °F - 53.6 °F 50% 29.95 in 12.0 mi North 8.1 mph - N/A   Clear
12:40 PM 73.4 °F - 57.2 °F 57% 29.91 in 12.0 mi North 11.5 mph - N/A   Clear
1:42 PM 75.2 °F - 59.0 °F 57% 29.95 in 12.0 mi NNW 13.8 mph - N/A   Clear
1:50 PM 80 °F - 54 °F 30% 29.89 in 19 mi NW 8.9 mph - -  
2:49 PM 75.2 °F - 50.0 °F 41% 29.88 in 12.0 mi North 9.2 mph - N/A   Clear
3:41 PM 77.0 °F - 50.0 °F 39% 29.87 in 12.0 mi North 5.8 mph - N/A   Clear
4:52 PM 75.2 °F - 55.4 °F 50% 29.96 in 10.0 mi NNW 9.2 mph - N/A   Clear
5:42 PM 71.6 °F - 53.6 °F 53% 29.86 in 10.0 mi NW 5.8 mph - N/A   Clear
6:50 PM 66.2 °F - 50.0 °F 56% 29.89 in 10.0 mi Calm Calm - N/A   Clear
7:41 PM 60.8 °F - 51.8 °F 72% 30.02 in 10.0 mi SSW 5.8 mph - N/A   Clear
7:50 PM 68 °F - 58 °F 61% 29.91 in 2 mi South 4.5 mph - -  
8:44 PM 60.8 °F - 55.4 °F 82% 29.93 in 10.0 mi SE 6.9 mph - N/A   Clear
9:45 PM 60.8 °F - 57.2 °F 88% 29.95 in 10.0 mi SE 6.9 mph - N/A   Clear
10:40 PM 60.8 °F - 57.2 °F 88% 30.06 in 10.0 mi South 6.9 mph - N/A   Clear